{"data":{"norad_id":68019,"intl_designator":"2026-040E","name":"STARLINK-36921","alt_names":[],"object_type":"PAYLOAD","status":"ACTIVE","operator":null,"country":"US","launch_date":"2026-03-01","launch_site_code":"AFWTR","launch_vehicle":null,"mission":null,"orbit_class":"UNKNOWN","rcs_meters":null,"size_class":null,"mass_kg":null,"dimensions":null,"purposes":["comms"],"wikipedia_slug":null,"has_3d_model":false,"image_url":null,"decayed_at":null,"tle_current":{"epoch":"2026-05-25T02:52:46.241760Z","epoch_age_seconds":61360,"freshness":"FRESH","line1":"1 68019U 26040E   26145.11997965  .00019268  00000+0  59750-3 0  9995","line2":"2 68019  97.2851  94.0996 0001874  95.1704 264.9753 15.33451348 13176","mean_motion":15.33451348,"eccentricity":0.0001874,"inclination_deg":97.2851,"raan_deg":94.0996,"arg_perigee_deg":95.1704,"mean_anomaly_deg":264.9753,"bstar":0.0005975,"rev_number":1317,"period_min":93.905815915067,"perigee_km":464.24178523623,"apogee_km":466.80678948674,"semimajor_km":6843.6612873615,"source":"CELESTRAK","updated_at":"2026-05-25T13:38:21.804847Z"}}}